Year,Month,Day,Hour,Minute,Value (Times are PST for temperature in C)
2019,04,02,00,00,7.50
2019,04,02,00,01,7.50
2019,04,02,00,02,7.50
2019,04,02,00,03,7.60
2019,04,02,00,04,7.60
2019,04,02,00,05,7.60
2019,04,02,00,06,7.60
2019,04,02,00,07,7.60
2019,04,02,00,08,7.60
2019,04,02,00,09,7.60
2019,04,02,00,10,7.60
2019,04,02,00,11,7.60
2019,04,02,00,12,7.50
2019,04,02,00,13,7.50
2019,04,02,00,14,7.40
2019,04,02,00,15,7.40
2019,04,02,00,16,7.30
2019,04,02,00,17,7.30
2019,04,02,00,18,7.30
2019,04,02,00,19,7.20
2019,04,02,00,20,7.20
2019,04,02,00,21,7.20
2019,04,02,00,22,7.10
2019,04,02,00,23,7.10
2019,04,02,00,24,7.10
2019,04,02,00,25,7.10
2019,04,02,00,26,7.00
2019,04,02,00,27,7.00
2019,04,02,00,28,7.00
2019,04,02,00,29,6.90
2019,04,02,00,30,6.90
2019,04,02,00,31,6.80
2019,04,02,00,32,6.80
2019,04,02,00,33,6.80
2019,04,02,00,34,6.80
2019,04,02,00,35,6.80
2019,04,02,00,36,6.70
2019,04,02,00,37,6.70
2019,04,02,00,38,6.70
2019,04,02,00,39,6.70
2019,04,02,00,40,6.70
2019,04,02,00,41,6.70
2019,04,02,00,42,6.60
2019,04,02,00,43,6.60
2019,04,02,00,44,6.60
2019,04,02,00,45,6.60
2019,04,02,00,46,6.50
2019,04,02,00,47,6.50
2019,04,02,00,48,6.50
2019,04,02,00,49,6.50
2019,04,02,00,50,6.50
2019,04,02,00,51,6.50
2019,04,02,00,52,6.50
2019,04,02,00,53,6.50
2019,04,02,00,54,6.50
2019,04,02,00,55,6.60
2019,04,02,00,56,6.60
2019,04,02,00,57,6.60
2019,04,02,00,58,6.60
2019,04,02,00,59,6.60
2019,04,02,01,00,6.60
2019,04,02,01,01,6.60
2019,04,02,01,02,6.50
2019,04,02,01,03,6.50
2019,04,02,01,04,6.50
2019,04,02,01,05,6.40
2019,04,02,01,06,6.40
2019,04,02,01,07,6.40
2019,04,02,01,08,6.40
2019,04,02,01,09,6.40
2019,04,02,01,10,6.30
2019,04,02,01,11,6.30
2019,04,02,01,12,6.30
2019,04,02,01,13,6.20
2019,04,02,01,14,6.20
2019,04,02,01,15,6.20
2019,04,02,01,16,6.10
2019,04,02,01,17,6.10
2019,04,02,01,18,6.10
2019,04,02,01,19,6.10
2019,04,02,01,20,6.00
2019,04,02,01,21,6.00
2019,04,02,01,22,6.00
2019,04,02,01,23,6.00
2019,04,02,01,24,6.00
2019,04,02,01,25,6.00
2019,04,02,01,26,6.00
2019,04,02,01,27,6.00
2019,04,02,01,28,5.90
2019,04,02,01,29,6.00
2019,04,02,01,30,6.00
2019,04,02,01,31,6.00
2019,04,02,01,32,6.00
2019,04,02,01,33,6.10
2019,04,02,01,34,6.10
2019,04,02,01,35,6.10
2019,04,02,01,36,6.10
2019,04,02,01,37,6.10
2019,04,02,01,38,6.10
2019,04,02,01,39,6.20
2019,04,02,01,40,6.20
2019,04,02,01,41,6.20
2019,04,02,01,42,6.20
2019,04,02,01,43,6.20
2019,04,02,01,44,6.10
2019,04,02,01,45,6.10
2019,04,02,01,46,6.10
2019,04,02,01,47,6.10
2019,04,02,01,48,6.00
2019,04,02,01,49,6.00
2019,04,02,01,50,5.90
2019,04,02,01,51,5.90
2019,04,02,01,52,5.80
2019,04,02,01,53,5.80
2019,04,02,01,54,5.80
2019,04,02,01,55,5.70
2019,04,02,01,56,5.70
2019,04,02,01,57,5.60
2019,04,02,01,58,5.60
2019,04,02,01,59,5.60
2019,04,02,02,00,5.60
2019,04,02,02,01,5.60
2019,04,02,02,02,5.50
2019,04,02,02,03,5.50
2019,04,02,02,04,5.50
2019,04,02,02,05,5.50
2019,04,02,02,06,5.50
2019,04,02,02,07,5.50
2019,04,02,02,08,5.50
2019,04,02,02,09,5.50
2019,04,02,02,10,5.40
2019,04,02,02,11,5.40
2019,04,02,02,12,5.40
2019,04,02,02,13,5.40
2019,04,02,02,14,5.40
2019,04,02,02,15,5.40
2019,04,02,02,16,5.40
2019,04,02,02,17,5.30
2019,04,02,02,18,5.30
2019,04,02,02,19,5.30
2019,04,02,02,20,5.30
2019,04,02,02,21,5.30
2019,04,02,02,22,5.30
2019,04,02,02,23,5.30
2019,04,02,02,24,5.30
2019,04,02,02,25,5.30
2019,04,02,02,26,5.30
2019,04,02,02,27,5.30
2019,04,02,02,28,5.30
2019,04,02,02,29,5.30
2019,04,02,02,30,5.30
2019,04,02,02,31,5.30
2019,04,02,02,32,5.30
2019,04,02,02,33,5.30
2019,04,02,02,34,5.30
2019,04,02,02,35,5.30
2019,04,02,02,36,5.30
2019,04,02,02,37,5.30
2019,04,02,02,38,5.30
2019,04,02,02,39,5.30
2019,04,02,02,40,5.30
2019,04,02,02,41,5.30
2019,04,02,02,42,5.30
2019,04,02,02,43,5.20
2019,04,02,02,44,5.20
2019,04,02,02,45,5.20
2019,04,02,02,46,5.20
2019,04,02,02,47,5.20
2019,04,02,02,48,5.20
2019,04,02,02,49,5.10
2019,04,02,02,50,5.10
2019,04,02,02,51,5.10
2019,04,02,02,52,5.10
2019,04,02,02,53,5.10
2019,04,02,02,54,5.10
2019,04,02,02,55,5.10
2019,04,02,02,56,5.10
2019,04,02,02,57,5.10
2019,04,02,02,58,5.10
2019,04,02,02,59,5.10
2019,04,02,03,00,5.00
2019,04,02,03,01,5.00
2019,04,02,03,02,5.00
2019,04,02,03,03,5.00
2019,04,02,03,04,5.00
2019,04,02,03,05,5.00
2019,04,02,03,06,5.00
2019,04,02,03,07,5.00
2019,04,02,03,08,5.00
2019,04,02,03,09,5.00
2019,04,02,03,10,5.10
2019,04,02,03,11,5.10
2019,04,02,03,12,5.10
2019,04,02,03,13,5.20
2019,04,02,03,14,5.20
2019,04,02,03,15,5.20
2019,04,02,03,16,5.30
2019,04,02,03,17,5.40
2019,04,02,03,18,5.50
2019,04,02,03,19,5.60
2019,04,02,03,20,5.70
2019,04,02,03,21,5.70
2019,04,02,03,22,5.80
2019,04,02,03,23,5.80
2019,04,02,03,24,5.90
2019,04,02,03,25,6.00
2019,04,02,03,26,6.10
2019,04,02,03,27,6.10
2019,04,02,03,28,6.20
2019,04,02,03,29,6.30
2019,04,02,03,30,6.50
2019,04,02,03,31,6.60
2019,04,02,03,32,6.90
2019,04,02,03,33,7.10
2019,04,02,03,34,7.40
2019,04,02,03,35,7.60
2019,04,02,03,36,7.90
2019,04,02,03,37,8.20
2019,04,02,03,38,8.50
2019,04,02,03,39,8.70
2019,04,02,03,40,8.90
2019,04,02,03,41,9.20
2019,04,02,03,42,9.30
2019,04,02,03,43,9.50
2019,04,02,03,44,9.70
2019,04,02,03,45,9.80
2019,04,02,03,46,10.00
2019,04,02,03,47,10.10
2019,04,02,03,48,10.20
2019,04,02,03,49,10.30
2019,04,02,03,50,10.40
2019,04,02,03,51,10.50
2019,04,02,03,52,10.50
2019,04,02,03,53,10.60
2019,04,02,03,54,10.60
2019,04,02,03,55,10.70
2019,04,02,03,56,10.80
2019,04,02,03,57,10.80
2019,04,02,03,58,10.80
2019,04,02,03,59,10.80
2019,04,02,04,00,10.80
2019,04,02,04,01,10.80
2019,04,02,04,02,10.90
2019,04,02,04,03,10.90
2019,04,02,04,04,10.90
2019,04,02,04,05,11.00
2019,04,02,04,06,11.10
2019,04,02,04,07,11.10
2019,04,02,04,08,11.10
2019,04,02,04,09,11.20
2019,04,02,04,10,11.20
2019,04,02,04,11,11.30
2019,04,02,04,12,11.30
2019,04,02,04,13,11.40
2019,04,02,04,14,11.40
2019,04,02,04,15,11.50
2019,04,02,04,16,11.50
2019,04,02,04,17,11.60
2019,04,02,04,18,11.60
2019,04,02,04,19,11.60
2019,04,02,04,20,11.60
2019,04,02,04,21,11.60
2019,04,02,04,22,11.70
2019,04,02,04,23,11.70
2019,04,02,04,24,11.70
2019,04,02,04,25,11.70
2019,04,02,04,26,11.70
2019,04,02,04,27,11.70
2019,04,02,04,28,11.70
2019,04,02,04,29,11.70
2019,04,02,04,30,11.70
2019,04,02,04,31,11.80
2019,04,02,04,32,11.80
2019,04,02,04,33,11.80
2019,04,02,04,34,11.80
2019,04,02,04,35,11.80
2019,04,02,04,36,11.80
2019,04,02,04,37,11.80
2019,04,02,04,38,11.80
2019,04,02,04,39,11.80
2019,04,02,04,40,11.80
2019,04,02,04,41,11.80
2019,04,02,04,42,11.80
2019,04,02,04,43,11.80
2019,04,02,04,44,11.80
2019,04,02,04,45,11.80
2019,04,02,04,46,11.80
2019,04,02,04,47,11.80
2019,04,02,04,48,11.70
2019,04,02,04,49,11.70
2019,04,02,04,50,11.70
2019,04,02,04,51,11.60
2019,04,02,04,52,11.60
2019,04,02,04,53,11.50
2019,04,02,04,54,11.50
2019,04,02,04,55,11.40
2019,04,02,04,56,11.40
2019,04,02,04,57,11.40
2019,04,02,04,58,11.30
2019,04,02,04,59,11.30
2019,04,02,05,00,11.30
2019,04,02,05,01,11.20
2019,04,02,05,02,11.20
2019,04,02,05,03,11.20
2019,04,02,05,04,11.20
2019,04,02,05,05,11.10
2019,04,02,05,06,11.10
2019,04,02,05,07,11.10
2019,04,02,05,08,11.00
2019,04,02,05,09,11.00
2019,04,02,05,10,11.00
2019,04,02,05,11,10.90
2019,04,02,05,12,10.90
2019,04,02,05,13,10.90
2019,04,02,05,14,10.80
2019,04,02,05,15,10.80
2019,04,02,05,16,10.80
2019,04,02,05,17,10.90
2019,04,02,05,18,10.90
2019,04,02,05,19,11.00
2019,04,02,05,20,11.00
2019,04,02,05,21,11.10
2019,04,02,05,22,11.20
2019,04,02,05,23,11.30
2019,04,02,05,24,11.40
2019,04,02,05,25,11.50
2019,04,02,05,26,11.60
2019,04,02,05,27,11.60
2019,04,02,05,28,11.70
2019,04,02,05,29,11.70
2019,04,02,05,30,11.80
2019,04,02,05,31,11.90
2019,04,02,05,32,11.90
2019,04,02,05,33,12.00
2019,04,02,05,34,12.10
2019,04,02,05,35,12.10
2019,04,02,05,36,12.20
2019,04,02,05,37,12.20
2019,04,02,05,38,12.30
2019,04,02,05,39,12.30
2019,04,02,05,40,12.30
2019,04,02,05,41,12.30
2019,04,02,05,42,12.30
2019,04,02,05,43,12.30
2019,04,02,05,44,12.30
2019,04,02,05,45,12.30
2019,04,02,05,46,12.30
2019,04,02,05,47,12.30
2019,04,02,05,48,12.30
2019,04,02,05,49,12.30
2019,04,02,05,50,12.30
2019,04,02,05,51,12.30
2019,04,02,05,52,12.40
2019,04,02,05,53,12.40
2019,04,02,05,54,12.40
2019,04,02,05,55,12.30
2019,04,02,05,56,12.30
2019,04,02,05,57,12.30
2019,04,02,05,58,12.30
2019,04,02,05,59,12.30
2019,04,02,06,00,12.30
2019,04,02,06,01,12.30
2019,04,02,06,02,12.30
2019,04,02,06,03,12.30
2019,04,02,06,04,12.20
2019,04,02,06,05,12.20
2019,04,02,06,06,12.20
2019,04,02,06,07,12.20
2019,04,02,06,08,12.20
2019,04,02,06,09,12.20
2019,04,02,06,10,12.20
2019,04,02,06,11,12.20
2019,04,02,06,12,12.20
2019,04,02,06,13,12.20
2019,04,02,06,14,12.20
2019,04,02,06,15,12.20
2019,04,02,06,16,12.20
2019,04,02,06,17,12.20
2019,04,02,06,18,12.20
2019,04,02,06,19,12.20
2019,04,02,06,20,12.10
2019,04,02,06,21,12.10
2019,04,02,06,22,12.10
2019,04,02,06,23,12.10
2019,04,02,06,24,12.10
2019,04,02,06,25,12.10
2019,04,02,06,26,12.10
2019,04,02,06,27,12.10
2019,04,02,06,28,12.10
2019,04,02,06,29,12.10
2019,04,02,06,30,12.10
2019,04,02,06,31,12.10
2019,04,02,06,32,12.10
2019,04,02,06,33,12.10
2019,04,02,06,34,12.10
2019,04,02,06,35,12.10
2019,04,02,06,36,12.10
2019,04,02,06,37,12.10
2019,04,02,06,38,12.10
2019,04,02,06,39,12.00
2019,04,02,06,40,12.00
2019,04,02,06,41,12.00
2019,04,02,06,42,11.90
2019,04,02,06,43,11.90
2019,04,02,06,44,11.90
2019,04,02,06,45,11.90
2019,04,02,06,46,11.90
2019,04,02,06,47,11.90
2019,04,02,06,48,11.90
2019,04,02,06,49,11.90
2019,04,02,06,50,11.90
2019,04,02,06,51,11.90
2019,04,02,06,52,11.80
2019,04,02,06,53,11.80
2019,04,02,06,54,11.80
2019,04,02,06,55,11.80
2019,04,02,06,56,11.80
2019,04,02,06,57,11.80
2019,04,02,06,58,11.90
2019,04,02,06,59,11.90
2019,04,02,07,00,11.90
2019,04,02,07,01,11.90
2019,04,02,07,02,11.90
2019,04,02,07,03,11.90
2019,04,02,07,04,11.90
2019,04,02,07,05,11.90
2019,04,02,07,06,11.90
2019,04,02,07,07,11.90
2019,04,02,07,08,11.90
2019,04,02,07,09,11.90
2019,04,02,07,10,11.90
2019,04,02,07,11,11.90
2019,04,02,07,12,11.90
2019,04,02,07,13,11.90
2019,04,02,07,14,11.90
2019,04,02,07,15,11.90
2019,04,02,07,16,11.90
2019,04,02,07,17,11.90
2019,04,02,07,18,11.90
2019,04,02,07,19,12.00
2019,04,02,07,20,12.00
2019,04,02,07,21,12.00
2019,04,02,07,22,12.00
2019,04,02,07,23,12.00
2019,04,02,07,24,12.00
2019,04,02,07,25,11.90
2019,04,02,07,26,11.90
2019,04,02,07,27,11.90
2019,04,02,07,28,12.00
2019,04,02,07,29,12.00
2019,04,02,07,30,12.00
2019,04,02,07,31,11.90
2019,04,02,07,32,12.00
2019,04,02,07,33,12.00
2019,04,02,07,34,12.00
2019,04,02,07,35,12.00
2019,04,02,07,36,12.00
2019,04,02,07,37,12.10
2019,04,02,07,38,12.10
2019,04,02,07,39,12.10
2019,04,02,07,40,12.10
2019,04,02,07,41,12.10
2019,04,02,07,42,12.10
2019,04,02,07,43,12.10
2019,04,02,07,44,12.10
2019,04,02,07,45,12.10
2019,04,02,07,46,12.10
2019,04,02,07,47,12.20
2019,04,02,07,48,12.20
2019,04,02,07,49,12.20
2019,04,02,07,50,12.20
2019,04,02,07,51,12.20
2019,04,02,07,52,12.20
2019,04,02,07,53,12.20
2019,04,02,07,54,12.20
2019,04,02,07,55,12.30
2019,04,02,07,56,12.30
2019,04,02,07,57,12.30
2019,04,02,07,58,12.30
2019,04,02,07,59,12.30
2019,04,02,08,00,12.30
2019,04,02,08,01,12.40
2019,04,02,08,02,12.40
2019,04,02,08,03,12.50
2019,04,02,08,04,12.50
2019,04,02,08,05,12.60
2019,04,02,08,06,12.60
2019,04,02,08,07,12.70
2019,04,02,08,08,12.70
2019,04,02,08,09,12.70
2019,04,02,08,10,12.80
2019,04,02,08,11,12.80
2019,04,02,08,12,12.80
2019,04,02,08,13,12.90
2019,04,02,08,14,12.90
2019,04,02,08,15,12.90
2019,04,02,08,16,13.00
2019,04,02,08,17,13.00
2019,04,02,08,18,13.10
2019,04,02,08,19,13.10
2019,04,02,08,20,13.20
2019,04,02,08,21,13.20
2019,04,02,08,22,13.30
2019,04,02,08,23,13.30
2019,04,02,08,24,13.30
2019,04,02,08,25,13.40
2019,04,02,08,26,13.40
2019,04,02,08,27,13.40
2019,04,02,08,28,13.50
2019,04,02,08,29,13.50
2019,04,02,08,30,13.60
2019,04,02,08,31,13.60
2019,04,02,08,32,13.60
2019,04,02,08,33,13.60
2019,04,02,08,34,13.70
2019,04,02,08,35,13.70
2019,04,02,08,36,13.70
2019,04,02,08,37,13.70
2019,04,02,08,38,13.70
2019,04,02,08,39,13.80
2019,04,02,08,40,13.80
2019,04,02,08,41,13.80
2019,04,02,08,42,13.80
2019,04,02,08,43,13.70
2019,04,02,08,44,13.70
2019,04,02,08,45,13.70
2019,04,02,08,46,13.70
2019,04,02,08,47,13.70
2019,04,02,08,48,13.70
2019,04,02,08,49,13.70
2019,04,02,08,50,13.80
2019,04,02,08,51,13.80
2019,04,02,08,52,13.80
2019,04,02,08,53,13.90
2019,04,02,08,54,13.90
2019,04,02,08,55,13.90
2019,04,02,08,56,14.00
2019,04,02,08,57,14.00
2019,04,02,08,58,14.00
2019,04,02,08,59,14.00
2019,04,02,09,00,14.10
2019,04,02,09,01,14.10
2019,04,02,09,02,14.10
2019,04,02,09,03,14.10
2019,04,02,09,04,14.10
2019,04,02,09,05,14.10
2019,04,02,09,06,14.10
2019,04,02,09,07,14.10
2019,04,02,09,08,14.10
2019,04,02,09,09,14.10
2019,04,02,09,10,14.10
2019,04,02,09,11,14.20
2019,04,02,09,12,14.20
2019,04,02,09,13,14.20
2019,04,02,09,14,14.20
2019,04,02,09,15,14.20
2019,04,02,09,16,14.20
2019,04,02,09,17,14.30
2019,04,02,09,18,14.30
2019,04,02,09,19,14.30
2019,04,02,09,20,14.30
2019,04,02,09,21,14.30
2019,04,02,09,22,14.30
2019,04,02,09,23,14.30
2019,04,02,09,24,14.30
2019,04,02,09,25,14.30
2019,04,02,09,26,14.30
2019,04,02,09,27,14.30
2019,04,02,09,28,14.30
2019,04,02,09,29,14.30
2019,04,02,09,30,14.30
2019,04,02,09,31,14.40
2019,04,02,09,32,14.40
2019,04,02,09,33,14.40
2019,04,02,09,34,14.50
2019,04,02,09,35,14.50
2019,04,02,09,36,14.60
2019,04,02,09,37,14.70
2019,04,02,09,38,14.70
2019,04,02,09,39,14.70
2019,04,02,09,40,14.70
2019,04,02,09,41,14.70
2019,04,02,09,42,14.80
2019,04,02,09,43,14.80
2019,04,02,09,44,14.90
2019,04,02,09,45,14.90
2019,04,02,09,46,14.90
2019,04,02,09,47,14.90
2019,04,02,09,48,14.90
2019,04,02,09,49,15.00
2019,04,02,09,50,15.00
2019,04,02,09,51,15.00
2019,04,02,09,52,15.00
2019,04,02,09,53,15.00
2019,04,02,09,54,15.00
2019,04,02,09,55,15.10
2019,04,02,09,56,15.10
2019,04,02,09,57,15.10
2019,04,02,09,58,15.10
2019,04,02,09,59,15.10
2019,04,02,10,00,15.20
2019,04,02,10,01,15.20
2019,04,02,10,02,15.10
2019,04,02,10,03,15.10
2019,04,02,10,04,15.10
2019,04,02,10,05,15.10
2019,04,02,10,06,15.10
2019,04,02,10,07,15.10
2019,04,02,10,08,15.10
2019,04,02,10,09,15.10
2019,04,02,10,10,15.20
2019,04,02,10,11,15.20
2019,04,02,10,12,15.20
2019,04,02,10,13,15.20
2019,04,02,10,14,15.20
2019,04,02,10,15,15.20
2019,04,02,10,16,15.10
2019,04,02,10,17,15.10
2019,04,02,10,18,15.10
2019,04,02,10,19,15.10
2019,04,02,10,20,15.20
2019,04,02,10,21,15.20
2019,04,02,10,22,15.20
2019,04,02,10,23,15.20
2019,04,02,10,24,15.20
2019,04,02,10,25,15.20
2019,04,02,10,26,15.30
2019,04,02,10,27,15.30
2019,04,02,10,28,15.30
2019,04,02,10,29,15.30
2019,04,02,10,30,15.30
2019,04,02,10,31,15.30
2019,04,02,10,32,15.30
2019,04,02,10,33,15.30
2019,04,02,10,34,15.30
2019,04,02,10,35,15.30
2019,04,02,10,36,15.30
2019,04,02,10,37,15.30
2019,04,02,10,38,15.30
2019,04,02,10,39,15.30
2019,04,02,10,40,15.30
2019,04,02,10,41,15.40
2019,04,02,10,42,15.40
2019,04,02,10,43,15.40
2019,04,02,10,44,15.40
2019,04,02,10,45,15.40
2019,04,02,10,46,15.40
2019,04,02,10,47,15.40
2019,04,02,10,48,15.40
2019,04,02,10,49,15.40
2019,04,02,10,50,15.40
2019,04,02,10,51,15.40
2019,04,02,10,52,15.50
2019,04,02,10,53,15.50
2019,04,02,10,54,15.60
2019,04,02,10,55,15.60
2019,04,02,10,56,15.70
2019,04,02,10,57,15.80
2019,04,02,10,58,15.90
2019,04,02,10,59,15.90
2019,04,02,11,00,15.90
2019,04,02,11,01,15.90
2019,04,02,11,02,15.80
2019,04,02,11,03,15.70
2019,04,02,11,04,15.70
2019,04,02,11,05,15.70
2019,04,02,11,06,15.70
2019,04,02,11,07,15.80
2019,04,02,11,08,15.80
2019,04,02,11,09,15.80
2019,04,02,11,10,15.90
2019,04,02,11,11,15.90
2019,04,02,11,12,16.00
2019,04,02,11,13,16.10
2019,04,02,11,14,16.10
2019,04,02,11,15,16.10
2019,04,02,11,16,16.10
2019,04,02,11,17,16.10
2019,04,02,11,18,16.00
2019,04,02,11,19,16.00
2019,04,02,11,20,15.90
2019,04,02,11,21,15.90
2019,04,02,11,22,15.90
2019,04,02,11,23,15.90
2019,04,02,11,24,15.90
2019,04,02,11,25,15.90
2019,04,02,11,26,15.90
2019,04,02,11,27,15.90
2019,04,02,11,28,15.90
2019,04,02,11,29,15.90
2019,04,02,11,30,15.90
2019,04,02,11,31,15.90
2019,04,02,11,32,15.90
2019,04,02,11,33,16.00
2019,04,02,11,34,16.00
2019,04,02,11,35,16.00
2019,04,02,11,36,16.00
2019,04,02,11,37,15.90
2019,04,02,11,38,15.90
2019,04,02,11,39,15.90
2019,04,02,11,40,15.80
2019,04,02,11,41,15.80
2019,04,02,11,42,15.80
2019,04,02,11,43,15.70
2019,04,02,11,44,15.70
2019,04,02,11,45,15.80
2019,04,02,11,46,15.80
2019,04,02,11,47,15.80
2019,04,02,11,48,15.80
2019,04,02,11,49,15.70
2019,04,02,11,50,15.70
2019,04,02,11,51,15.70
2019,04,02,11,52,15.80
2019,04,02,11,53,15.80
2019,04,02,11,54,15.90
2019,04,02,11,55,15.90
2019,04,02,11,56,15.90
2019,04,02,11,57,16.00
2019,04,02,11,58,16.00
2019,04,02,11,59,16.10
2019,04,02,12,00,16.10
2019,04,02,12,01,16.10
2019,04,02,12,02,16.10
2019,04,02,12,03,16.10
2019,04,02,12,04,16.20
2019,04,02,12,05,16.20
2019,04,02,12,06,16.30
2019,04,02,12,07,16.30
2019,04,02,12,08,16.20
2019,04,02,12,09,16.20
2019,04,02,12,10,16.20
2019,04,02,12,11,16.30
2019,04,02,12,12,16.30
2019,04,02,12,13,16.30
2019,04,02,12,14,16.30
2019,04,02,12,15,16.40
2019,04,02,12,16,16.40
2019,04,02,12,17,16.40
2019,04,02,12,18,16.50
2019,04,02,12,19,16.50
2019,04,02,12,20,16.60
2019,04,02,12,21,16.70
2019,04,02,12,22,16.80
2019,04,02,12,23,16.80
2019,04,02,12,24,16.90
2019,04,02,12,25,16.90
2019,04,02,12,26,17.00
2019,04,02,12,27,17.00
2019,04,02,12,28,17.00
2019,04,02,12,29,16.90
2019,04,02,12,30,16.90
2019,04,02,12,31,16.80
2019,04,02,12,32,16.80
2019,04,02,12,33,16.80
2019,04,02,12,34,16.80
2019,04,02,12,35,16.80
2019,04,02,12,36,16.80
2019,04,02,12,37,16.80
2019,04,02,12,38,16.70
2019,04,02,12,39,16.70
2019,04,02,12,40,16.80
2019,04,02,12,41,16.80
2019,04,02,12,42,16.80
2019,04,02,12,43,16.80
2019,04,02,12,44,16.80
2019,04,02,12,45,16.80
2019,04,02,12,46,16.80
2019,04,02,12,47,16.90
2019,04,02,12,48,16.90
2019,04,02,12,49,16.90
2019,04,02,12,50,17.00
2019,04,02,12,51,17.00
2019,04,02,12,52,17.00
2019,04,02,12,53,16.90
2019,04,02,12,54,16.90
2019,04,02,12,55,16.90
2019,04,02,12,56,16.90
2019,04,02,12,57,16.90
2019,04,02,12,58,17.00
2019,04,02,12,59,17.10
2019,04,02,13,00,17.10
2019,04,02,13,01,17.10
2019,04,02,13,02,17.20
2019,04,02,13,03,17.20
2019,04,02,13,04,17.20
2019,04,02,13,05,17.10
2019,04,02,13,06,17.10
2019,04,02,13,07,17.10
2019,04,02,13,08,17.10
2019,04,02,13,09,17.10
2019,04,02,13,10,17.20
2019,04,02,13,11,17.20
2019,04,02,13,12,17.20
2019,04,02,13,13,17.20
2019,04,02,13,14,17.20
2019,04,02,13,15,17.20
2019,04,02,13,16,17.30
2019,04,02,13,17,17.30
2019,04,02,13,18,17.40
2019,04,02,13,19,17.40
2019,04,02,13,20,17.40
2019,04,02,13,21,17.40
2019,04,02,13,22,17.40
2019,04,02,13,23,17.50
2019,04,02,13,24,17.60
2019,04,02,13,25,17.60
2019,04,02,13,26,17.60
2019,04,02,13,27,17.70
2019,04,02,13,28,17.70
2019,04,02,13,29,17.80
2019,04,02,13,30,17.80
2019,04,02,13,31,17.80
2019,04,02,13,32,17.80
2019,04,02,13,33,17.80
2019,04,02,13,34,17.90
2019,04,02,13,35,17.80
2019,04,02,13,36,17.80
2019,04,02,13,37,17.80
2019,04,02,13,38,17.70
2019,04,02,13,39,17.60
2019,04,02,13,40,17.60
2019,04,02,13,41,17.60
2019,04,02,13,42,17.60
2019,04,02,13,43,17.60
2019,04,02,13,44,17.70
2019,04,02,13,45,17.70
2019,04,02,13,46,17.70
2019,04,02,13,47,17.80
2019,04,02,13,48,17.90
2019,04,02,13,49,17.90
2019,04,02,13,50,17.90
2019,04,02,13,51,18.00
2019,04,02,13,52,18.00
2019,04,02,13,53,18.00
2019,04,02,13,54,18.00
2019,04,02,13,55,18.00
2019,04,02,13,56,17.90
2019,04,02,13,57,17.90
2019,04,02,13,58,17.90
2019,04,02,13,59,17.80
2019,04,02,14,00,17.80
2019,04,02,14,01,17.80
2019,04,02,14,02,17.90
2019,04,02,14,03,17.90
2019,04,02,14,04,17.90
2019,04,02,14,05,17.90
2019,04,02,14,06,17.90
2019,04,02,14,07,18.00
2019,04,02,14,08,18.10
2019,04,02,14,09,18.10
2019,04,02,14,10,18.20
2019,04,02,14,11,18.20
2019,04,02,14,12,18.20
2019,04,02,14,13,18.20
2019,04,02,14,14,18.10
2019,04,02,14,15,18.10
2019,04,02,14,16,18.10
2019,04,02,14,17,18.00
2019,04,02,14,18,18.10
2019,04,02,14,19,18.10
2019,04,02,14,20,18.10
2019,04,02,14,21,18.00
2019,04,02,14,22,18.00
2019,04,02,14,23,18.10
2019,04,02,14,24,18.10
2019,04,02,14,25,18.20
2019,04,02,14,26,18.30
2019,04,02,14,27,18.30
2019,04,02,14,28,18.30
2019,04,02,14,29,18.30
2019,04,02,14,30,18.40
2019,04,02,14,31,18.40
2019,04,02,14,32,18.40
2019,04,02,14,33,18.40
2019,04,02,14,34,18.30
2019,04,02,14,35,18.30
2019,04,02,14,36,18.30
2019,04,02,14,37,18.30
2019,04,02,14,38,18.30
2019,04,02,14,39,18.30
2019,04,02,14,40,18.30
2019,04,02,14,41,18.30
2019,04,02,14,42,18.30
2019,04,02,14,43,18.30
2019,04,02,14,44,18.30
2019,04,02,14,45,18.30
2019,04,02,14,46,18.30
2019,04,02,14,47,18.30
2019,04,02,14,48,18.30
2019,04,02,14,49,18.30
2019,04,02,14,50,18.30
2019,04,02,14,51,18.30
2019,04,02,14,52,18.30
2019,04,02,14,53,18.30
2019,04,02,14,54,18.30
2019,04,02,14,55,18.30
2019,04,02,14,56,18.40
2019,04,02,14,57,18.40
2019,04,02,14,58,18.40
2019,04,02,14,59,18.40
2019,04,02,15,00,18.50
2019,04,02,15,01,18.50
2019,04,02,15,02,18.50
2019,04,02,15,03,18.50
2019,04,02,15,04,18.50
2019,04,02,15,05,18.50
2019,04,02,15,06,18.50
2019,04,02,15,07,18.50
2019,04,02,15,08,18.50
2019,04,02,15,09,18.50
2019,04,02,15,10,18.50
2019,04,02,15,11,18.50
2019,04,02,15,12,18.50
2019,04,02,15,13,18.50
2019,04,02,15,14,18.40
2019,04,02,15,15,18.40
2019,04,02,15,16,18.40
2019,04,02,15,17,18.40
2019,04,02,15,18,18.40
2019,04,02,15,19,18.40
2019,04,02,15,20,18.50
2019,04,02,15,21,18.50
2019,04,02,15,22,18.60
2019,04,02,15,23,18.60
2019,04,02,15,24,18.60
2019,04,02,15,25,18.60
2019,04,02,15,26,18.60
2019,04,02,15,27,18.50
2019,04,02,15,28,18.50
2019,04,02,15,29,18.50
2019,04,02,15,30,18.50
2019,04,02,15,31,18.50
2019,04,02,15,32,18.50
2019,04,02,15,33,18.50
2019,04,02,15,34,18.40
2019,04,02,15,35,18.40
2019,04,02,15,36,18.40
2019,04,02,15,37,18.40
2019,04,02,15,38,18.30
2019,04,02,15,39,18.30
2019,04,02,15,40,18.30
2019,04,02,15,41,18.30
2019,04,02,15,42,18.30
2019,04,02,15,43,18.30
2019,04,02,15,44,18.30
2019,04,02,15,45,18.30
2019,04,02,15,46,18.30
2019,04,02,15,47,18.30
2019,04,02,15,48,18.30
2019,04,02,15,49,18.30
2019,04,02,15,50,18.30
2019,04,02,15,51,18.30
2019,04,02,15,52,18.30
2019,04,02,15,53,18.30
2019,04,02,15,54,18.40
2019,04,02,15,55,18.40
2019,04,02,15,56,18.40
2019,04,02,15,57,18.40
2019,04,02,15,58,18.40
2019,04,02,15,59,18.50
2019,04,02,16,00,18.50
2019,04,02,16,01,18.50
2019,04,02,16,02,18.50
2019,04,02,16,03,18.40
2019,04,02,16,04,18.40
2019,04,02,16,05,18.40
2019,04,02,16,06,18.40
2019,04,02,16,07,18.30
2019,04,02,16,08,18.30
2019,04,02,16,09,18.30
2019,04,02,16,10,18.30
2019,04,02,16,11,18.30
2019,04,02,16,12,18.30
2019,04,02,16,13,18.30
2019,04,02,16,14,18.30
2019,04,02,16,15,18.30
2019,04,02,16,16,18.40
2019,04,02,16,17,18.40
2019,04,02,16,18,18.30
2019,04,02,16,19,18.30
2019,04,02,16,20,18.30
2019,04,02,16,21,18.40
2019,04,02,16,22,18.40
2019,04,02,16,23,18.40
2019,04,02,16,24,18.40
2019,04,02,16,25,18.40
2019,04,02,16,26,18.40
2019,04,02,16,27,18.50
2019,04,02,16,28,18.50
2019,04,02,16,29,18.50
2019,04,02,16,30,18.50
2019,04,02,16,31,18.60
2019,04,02,16,32,18.60
2019,04,02,16,33,18.60
2019,04,02,16,34,18.50
2019,04,02,16,35,18.40
2019,04,02,16,36,18.10
2019,04,02,16,37,17.90
2019,04,02,16,38,17.70
2019,04,02,16,39,17.50
2019,04,02,16,40,17.40
2019,04,02,16,41,17.30
2019,04,02,16,42,17.20
2019,04,02,16,43,17.10
2019,04,02,16,44,17.00
2019,04,02,16,45,16.90
2019,04,02,16,46,16.80
2019,04,02,16,47,16.70
2019,04,02,16,48,16.70
2019,04,02,16,49,16.70
2019,04,02,16,50,16.70
2019,04,02,16,51,16.60
2019,04,02,16,52,16.60
2019,04,02,16,53,16.60
2019,04,02,16,54,16.60
2019,04,02,16,55,16.60
2019,04,02,16,56,16.60
2019,04,02,16,57,16.70
2019,04,02,16,58,16.70
2019,04,02,16,59,16.70
2019,04,02,17,00,16.70
2019,04,02,17,01,16.70
2019,04,02,17,02,16.60
2019,04,02,17,03,16.50
2019,04,02,17,04,16.50
2019,04,02,17,05,16.40
2019,04,02,17,06,16.40
2019,04,02,17,07,16.40
2019,04,02,17,08,16.40
2019,04,02,17,09,16.30
2019,04,02,17,10,16.30
2019,04,02,17,11,16.20
2019,04,02,17,12,16.20
2019,04,02,17,13,16.20
2019,04,02,17,14,16.20
2019,04,02,17,15,16.10
2019,04,02,17,16,16.10
2019,04,02,17,17,16.10
2019,04,02,17,18,16.10
2019,04,02,17,19,16.10
2019,04,02,17,20,16.10
2019,04,02,17,21,16.00
2019,04,02,17,22,16.00
2019,04,02,17,23,16.00
2019,04,02,17,24,15.90
2019,04,02,17,25,15.80
2019,04,02,17,26,15.80
2019,04,02,17,27,15.80
2019,04,02,17,28,15.80
2019,04,02,17,29,15.80